EHI
0 0 0 0 0 0 0 0 0 0 0 0 0 0 0 0 0 0 0 0 0 0 0 0 0 0 0 0 0 0 0 0 0 0 0 0 0 0
0 0 0 0 0 0 0 0 0 0 0 0 0 0 0 0 0 0 0 0 0 0 0 0 0 0 0 0 0 0 0 0 0 0 0 0 0 0
0 0 0 0 0 0 0 0 0 0 0 0 0 0 0 0 0 0 0 0 0 0 0 0 0 0 0 0 0 0 0 0 0 0 0 0 0 0
0 0 0 0 0 0 0 0 0 0 0 0 0 0 0 0 0 0 0 0 0 0 0 0 0 0 0 0 0 0 0 0 0 0 0 0 0 0
0 0 0 0 0 0 0 0 0 0 0 0 0 0 0 0 0 0 0 0 0 0 0 0 0 0 0 0 0 0 0 0 0 0 0 0 0 0
0 0 0 0 0 0 0 0 0 0 0 0 0 0 0 0 0 0 0 0 0 0 0 0 0 0 0 0 0 0 0 0 0 0 0 0 0 0
0 0 0 0 0 0 0 0 0 0 0 0 0 0 0 0 0 0 0 0 0 0 0 0 0 0 0 0 0 0 0 0 0 0 0 0 0 0
1 1 0 0 0 0 0 0 0 0 0 0 0 0 0 0 0 0 0 0 0 0 0 0 0 0 0 0 0 0 0 0 0 0 0 0 0 0
0 0 0 0 0 0 0 0 0 0 0 0 0 0 0 0 0 0 0 0 0 0 0 0 0 0 0 0 0 0 0 0 0 0 0 0 0 0
0 0 0 0 0 0 0 0 0 0 0 0 0 0 0 0 0 0 0 0 0 0 0 0 0 0 0 0 0 0 0 0 0 0 0 0 0 0
0 0 0 0 0 0 0 0 0 0 0 0 0 0 0 0 0 0 0 0 0 0 0 0 0 0 0 0 0 0 0 0 0 0 0 0 0 0
0 0 0 0 0 0 0 0 0 0 0 0 0 0 0 0 0 0 0 0 0 0 0 0 0 0 0 0 0 0 0 0 0 0 0 0 0 0
0 0 0 0 0 0 0 0 0 0 0 0 0 0 0 0 0 0 0 0 0 0 0 0 0 0 0 0 0 0 0 0 0 0 0 0 0 0
1 1 0 0 0 0 0 0 0 0 0 0 0 0 0 0 0 0 0 0 0 0 0 0 0 0 0 0 0 0 0 0 0 0 0 0 0 0
0 0 0 0 0 0 0 0 0 0 0 0 0 0 0 0 0 0 0 0 0 0 0 0 0 0 0 0 0 0 0 0 0 0 0 0 0 0
0 0 0 0 0 0 0 0 0 0 0 0 0 0 0 0 0 0 0 0 0 0 0 0 0 0 0 0 0 0 0 0 0 0 0 0 0 0
0 0 0 0 0 0 0 0 0 0 0 0 0 0 0 0 0 0 0 0 0 0 0 0 0 0 0 0 0 0 0 0 0 0 0 0 0 0
0 0 0 0 0 0 0 0 0 0 0 0 0 0 0 0 0 0 0 0 0 0 0 0 0 0 0 0 0 0 0 0 0 0 0 0 0 0
0 0 0 0 0 0 0 0 0 0 0 0 0 0 0 0 0 0 0 0 0 0 0 0 0 0 0 0 0 0 0 0 0 0 0 0 0 0
0 0 0 0 0 0 0 0 0 0 0 0 0 0 0 0 0 0 0 0 0 0 0 0 0 0 0 0 0 0 0 0 0 0 0 0 0 0
0 0 0 0 0 0 0 0 0 0 0 0 0 0 0 0 0 0 0 0 0 0 0 0 0 0 0 0 0 0 0 0 0 0 0 0 0 0
0 0 0 0 0 0 0 0 0 0 0 0 0 0 0 0 0 0 0 0 0 0 0 0 0 0 0 0 0 0 0 0 0 0 0 0 0 0
0 0 0 0 0 0 0 0 0 0 0 0 0 0 0 0 0 0 0 0 0 0 0 0 0 0 0 0 0 0 0 0 0 0 0 0 0 0
Wind_Speed
4 4 3 2 2 2 2 3 4 2 3 4 3 3 3 4 6 6 5 10 13 12 12 12 12 12 12 12 12 12 11 11 11 10 10 10 10 11
3 4 3 2 2 2 2 2 3 4 4 3 3 3 3 4 6 5 6 9 12 12 13 13 13 13 13 13 13 13 12 12 12 12 11 11 11 11
3 4 4 3 2 2 2 2 2 3 3 4 3 2 2 2 2 3 4 5 5 11 13 13 13 13 13 13 13 13 13 13 13 13 13 13 12 12
4 4 4 3 3 2 2 2 2 3 3 3 3 2 3 3 2 3 4 4 4 8 11 12 13 13 13 13 13 13 13 13 14 14 14 14 14 14
5 4 4 3 3 2 2 2 2 2 2 3 3 2 2 1 1 2 3 2 4 5 8 9 10 11 12 12 13 13 14 14 14 14 14 14 14 14
3 4 4 4 5 4 3 3 2 2 2 2 2 2 2 1 1 2 2 2 3 3 4 4 6 8 10 11 12 13 13 14 14 14 14 14 14 14
3 3 4 5 6 5 4 4 3 2 2 2 2 1 2 1 2 2 3 3 3 2 2 3 3 3 5 8 11 12 13 13 13 13 14 14 15 15
4 3 4 4 5 6 6 6 6 5 4 3 2 3 3 3 2 2 2 1 3 2 1 4 2 4 4 4 8 10 11 11 12 12 13 14 14 15
4 4 3 3 4 3 4 5 5 6 6 5 4 4 4 4 3 2 3 3 4 3 1 4 3 4 5 5 9 10 10 11 11 12 12 13 13 14
3 3 3 3 2 2 2 2 3 4 5 4 4 5 4 3 4 4 4 3 4 3 3 4 4 4 5 4 8 9 8 9 10 11 11 12 12 13
1 1 2 2 2 2 2 2 3 3 3 4 5 5 5 4 3 1 1 1 3 4 2 3 3 3 4 4 6 8 8 9 10 10 11 11 12 11
0 0 1 1 1 1 2 2 3 3 2 2 2 4 3 4 4 4 3 2 2 4 3 2 3 2 4 3 3 4 5 7 10 11 11 11 11 5
1 1 1 1 1 1 1 2 3 2 1 1 2 2 2 2 2 2 3 4 4 5 4 2 2 2 3 4 4 4 4 4 5 6 9 10 11 7
1 0 1 3 2 2 1 1 1 1 1 1 1 2 2 2 3 3 3 4 5 6 5 3 3 3 3 4 4 4 4 4 4 5 5 7 9 11
1 2 3 3 3 3 2 2 2 1 1 1 2 2 2 3 3 3 3 3 4 5 4 3 4 4 4 5 5 4 4 5 4 4 4 5 5 5
3 4 5 5 4 4 3 3 2 1 0 1 2 3 2 2 2 2 2 2 2 4 4 3 3 4 4 5 5 6 5 4 4 4 5 5 5 5
3 3 4 4 4 4 3 3 2 2 2 1 2 2 2 3 3 2 2 2 2 4 5 4 3 4 5 5 5 6 5 5 5 5 4 6 6 6
5 4 3 3 3 3 3 3 2 2 2 2 2 2 3 3 3 3 2 2 3 4 4 4 4 4 4 4 6 5 4 4 5 5 4 5 7 7
6 4 3 3 3 3 2 2 2 3 2 2 2 3 3 3 3 3 3 3 3 4 4 4 3 2 5 7 5 5 5 6 6 6 5 5 7 8
4 3 3 3 3 3 3 2 2 3 3 3 3 3 3 3 4 4 4 4 4 5 5 4 3 3 5 6 6 6 7 7 5 6 7 6 7 9
3 3 2 2 3 3 3 3 3 3 3 3 3 4 3 3 3 4 4 6 5 4 5 6 6 7 5 4 5 6 6 8 9 7 7 6 7 6
2 3 3 3 2 3 3 3 3 3 4 3 3 4 4 3 4 5 5 5 5 5 6 6 6 5 3 5 7 8 8 8 9 11 12 10 5 5
3 3 3 3 3 3 3 3 4 3 3 4 4 4 4 4 4 5 5 5 5 6 6 6 5 4 5 5 6 7 9 9 7 7 7 9 11 14
Wind_Direction
193 188 190 200 190 187 174 168 163 197 255 262 262 243 219 211 214 204 211 219 219 223 227 231 234 236 237 238 239 240 242 243 245 247 250 253 255 259
193 188 200 203 195 188 182 178 168 171 220 248 243 251 226 220 210 202 213 221 224 226 229 234 237 239 240 241 241 242 243 245 246 247 248 248 249 252
202 198 216 208 193 197 180 175 177 164 201 257 252 253 215 226 216 219 223 222 230 231 233 237 240 242 243 244 245 245 247 248 248 248 248 248 248 249
204 203 220 212 204 203 187 192 191 184 182 228 253 246 234 231 224 233 238 231 230 237 236 240 243 245 245 246 247 249 250 250 250 250 250 250 250 250
198 198 210 201 212 208 200 203 211 201 182 194 235 243 252 242 220 256 259 264 255 251 242 243 247 250 251 251 252 251 252 253 253 252 251 250 251 251
198 198 199 198 206 206 207 209 204 202 196 195 226 243 248 256 173 235 275 270 272 274 266 255 252 254 258 259 258 256 256 255 254 253 253 253 252 251
200 205 212 215 216 208 204 200 193 194 197 201 225 237 245 235 225 223 240 269 277 254 267 274 271 269 267 264 261 260 258 257 255 255 254 252 251 251
207 215 226 228 230 224 221 202 190 192 199 199 217 229 244 234 231 224 226 256 280 267 233 273 254 263 264 256 262 263 260 259 259 258 257 257 256 254
210 214 228 232 223 228 233 227 218 213 197 188 206 225 231 224 214 234 230 229 239 247 211 269 263 262 264 269 270 266 267 268 266 265 263 260 259 258
204 201 207 234 229 214 223 233 239 234 220 210 215 229 231 224 210 219 230 247 266 261 205 248 260 258 270 267 265 265 271 274 275 273 270 268 265 262
209 201 195 218 247 209 200 236 261 271 254 241 244 248 249 248 224 200 247 252 279 277 222 222 261 274 272 265 265 266 272 276 277 277 275 274 272 271
163 120 177 203 265 213 201 225 257 271 294 304 281 278 271 271 246 213 214 227 252 272 259 219 252 271 288 274 269 272 274 276 276 275 275 276 277 272
81 356 327 354 356 325 217 215 241 261 290 285 287 296 303 295 275 244 217 211 226 248 253 224 248 247 244 276 281 268 262 268 273 270 269 271 272 260
88 356 332 357 5 12 11 312 304 332 4 341 314 305 302 295 289 278 255 241 234 243 258 242 244 250 259 270 274 279 279 270 264 268 270 276 273 265
42 28 31 33 27 24 18 2 10 36 30 326 299 291 283 285 295 302 298 283 276 269 270 253 249 259 251 259 266 266 281 279 263 262 270 270 269 269
36 25 35 39 37 23 13 14 21 20 3 291 290 291 298 309 310 305 299 308 308 298 288 272 260 257 264 264 266 274 269 271 283 277 275 275 272 263
52 45 38 31 28 23 21 20 18 19 6 338 323 317 316 319 310 308 294 300 291 291 300 307 300 278 254 250 265 266 269 272 272 277 279 284 279 269
68 56 43 35 30 21 13 6 4 356 342 337 327 316 312 309 306 308 302 293 288 287 288 292 308 315 308 279 237 253 265 271 277 276 266 278 286 281
64 53 40 26 17 13 9 4 354 345 345 342 329 319 315 313 310 305 304 301 295 291 290 289 289 285 296 297 284 244 261 279 281 281 273 265 275 280
49 46 31 14 5 1 358 352 341 339 339 328 318 315 314 312 311 307 303 299 299 299 299 298 285 271 269 279 283 282 268 266 275 281 283 279 272 271
29 21 11 4 359 353 349 345 339 334 333 332 327 322 318 311 304 301 300 300 299 298 298 294 283 281 277 276 282 283 281 270 264 270 279 285 289 288
12 5 1 3 357 347 343 344 344 343 342 336 325 321 317 311 305 304 302 301 298 296 295 293 291 291 278 277 285 287 291 297 291 280 264 247 253 267
13 9 7 7 2 355 350 349 348 340 335 328 323 319 317 313 305 299 298 296 296 297 300 302 303 294 286 280 283 288 292 297 301 306 298 283 267 260